Location: Winterland
(47.1574°N, 55.3067°W)
Time: 15:05:26
(UTC+00:00)

Tiangong - Pass Details

Date: 25 August 2022
Orbit: 377 x 382 km, 41.5° (Epoch: 27 September)

Event Time Altitude Azimuth Distance (km) Brightness Sun altitude
Rises 23:53:52 0° 262° (W) 2,242 2.6 -13.1°
Reaches altitude 10° 23:56:46 10° 233° (SW) 1,385 0.9 -13.6°
Maximum altitude 23:58:16 13° 204° (SSW) 1,223 0.3 -13.8°
Enters shadow 23:59:17 12° 183° (S) 1,294 0.2 -13.9°
